Hourly Weather Roundup
Issued by NWS Central Illinois

Home | Current Version | Previous Version | Text Only | Print | Product List | Glossary On
Versions: 1 2 3 4 5 6 7 8 9 10 11 12 13 14 15 16 17 18 19 20 21 22 23 24 25 26 27 28 29 30 31 32 33 34 35 36 37 38 39 40 41 42 43 44 45 46 47 48 49 50
000
NZUS43 KILX 191710
HWRILX

AREA WEATHER ROUNDUP
NATIONAL WEATHER SERVICE, LINCOLN IL
1200 PM CDT FRI SEP 19 2014


CITY           SKY/WX    TMP DP  RH WIND       PRES   REMARKS
BLOOMINGTON    SUNNY     32  32 100 S14       30.15F WCI  22
CHAMPAIGN      SUNNY     72  49  44 SE12G21   30.15F
DECATUR        SUNNY     73  50  44 SE16      30.13F
FLORA          SUNNY     74  53  47 SE9       30.12F
GALESBURG      SUNNY     71  53  52 S10G16    30.09F
JACKSONVILLE   SUNNY     75  56  51 S10       30.10F
LACON          SUNNY     71  52  51 S13G18    30.11F
LAWRENCEVILLE  SUNNY     75  51  43 SE12G20   30.13F
LITCHFIELD     SUNNY     71  57  60 SE7       30.12F
$$


CITY           SKY/WX    TMP DP  RH WIND       PRES   REMARKS
LINCOLN        SUNNY     75  51  42 S12G18    30.10S
MACOMB         SUNNY     73  52  48 S12       30.11F
MATTOON        SUNNY     71  52  50 S10       30.13F
MT CARMEL AP   SUNNY     77  52  41 SE12      30.12F
OLNEY-NOBLE AP SUNNY     73  52  46 SE7       30.13S
PARIS          SUNNY     72  49  43 E9G16     30.15F
PEORIA         SUNNY     73  52  47 SE10      30.11F
PONTIAC        SUNNY     73  48  40 SE12G20   30.14S
RANTOUL        SUNNY     74  42  31 SE14      30.15F
ROBINSON       SUNNY     74  54  49 SE10G16   30.15S
SPRINGFIELD    SUNNY     73  55  53 SE7G17    30.12F
TAYLORVILLE    SUNNY     72  54  53 S9        30.12F
$$

...REGIONAL REPORTS...


CITY           SKY/WX    TMP DP  RH WIND       PRES   REMARKS
CHICAGO O`HARE MOSUNNY   71  51  49 S14G22    30.13F
KANKAKEE       SUNNY     72  48  43 SE10      30.14F
MOLINE         SUNNY     71  52  50 S14       30.08F
MOUNT VERNON   SUNNY     73  57  56 SE7       30.13S
PITTSFIELD     SUNNY     74  53  46 S7        30.11S
QUINCY         SUNNY     72  54  53 S8        30.08F
ROCKFORD       MOSUNNY   71  50  47 S18       30.12F
$$


CITY           SKY/WX    TMP DP  RH WIND       PRES   REMARKS
BURLINGTON     LGT RAIN  72  57  59 S12       30.07F
CEDAR RAPIDS   SUNNY     70  56  61 S18G26    30.01F
DES MOINES     CLOUDY    74  61  63 S21       29.97F
KIRKSVILLE     SUNNY     72  58  61 S13       30.06F
OTTUMWA        SUNNY     72  58  61 S16G24    30.03F
ST LOUIS       MOSUNNY   73  56  54 CALM      30.10F
$$


CITY           SKY/WX    TMP DP  RH WIND       PRES   REMARKS
TERRE HAUTE    SUNNY     71  49  45 SE13      30.15F
EVANSVILLE     SUNNY     73  53  49 E9        30.12F
INDIANAPOLIS   MOSUNNY   70  46  42 E15       30.16F
LAFAYETTE      SUNNY     70  45  40 SE13      30.15F
MADISON        MOSUNNY   70  51  51 S20G26    30.06F
MILWAUKEE      PTSUNNY   70  51  51 SW17G26   30.10F
$$





USA.gov is the U.S. government's official web portal to all federal, state and local government web resources and services.